Flag for Germany Weather past 2 weeks in Eckernförde, Schleswig-Holstein, Germany

Now
43 °F

Overcast.


Feels Like: 39 °F
Forecast: 36 / 44 °F
Wind: 7 mph from Southwest

Location: Schleswig

Current Time: Feb 28, 2015 at 2:36:04 PM

Latest Report: Feb 28, 2015 at 2:00 PM


Visibility: 16 mi

Pressure: 29.98 "Hg

Humidity: 71%

Dew point: 34 °F

Location of EckernfördeLocation

Historic Weather in Eckernförde — Graph

°F

Eckernförde temperature yesterday

Maximum temperature yesterday: 44 °F (at 3:00 PM)
Minimum temperature yesterday: 33 °F (at 11:00 PM)
Average temperature yesterday: 40 °F

Past Weeks' High & Low Weather Summary

 TemperatureHumidityPressure
High44 °F (Feb 26, 2:00 PM)100% (Feb 13, 11:00 PM)30.63 "Hg (Feb 13, 11:00 PM)
Low28 °F (Feb 17, 8:00 AM)67% (Feb 23, 3:00 AM)29.21 "Hg (Feb 21, 12:00 PM)
Average37 °F92%29.92 "Hg
* Reported Feb 13 1:00 PM — Feb 28 1:00 PM, Eckernförde, Weather by CustomWeather, © 2015

Note: Actual official high and low records may vary slightly from our data, if they occured in-between our weather recording intervals... More about our weather records

Advertising

Eckernförde weather history for previous 24 hours

 ConditionsComfort  
Time TempWeatherWind HumidityBarometerVisibility
1:00 PM
Sat, Feb 28
42 °FPartly sunny.8 mph74%29.99 "Hg16 mi
12:00 PM41 °FOvercast.7 mph81%30.01 "Hg16 mi
11:00 AM39 °FPartly sunny.6 mph87%30.02 "Hg16 mi
10:00 AM36 °FPartly sunny.5 mph92%30.03 "Hg14 mi
9:00 AM35 °FPartly sunny.6 mph96%30.05 "Hg10 mi
8:00 AM34 °FPartly sunny.5 mph98%30.04 "Hg7 mi
7:00 AM33 °FPassing clouds.3 mph98%30.03 "Hg12 mi
6:00 AM33 °FOvercast.2 mph97%30.03 "Hg10 mi
5:00 AM34 °FPassing clouds.2 mph97%30.04 "Hg12 mi
3:00 AM34 °FOvercast.3 mph98%30.05 "Hg12 mi
2:00 AM33 °FPassing clouds.2 mph98%30.05 "Hg9 mi
1:00 AM33 °FPassing clouds.2 mph97%30.05 "Hg11 mi
12:00 AM33 °FPassing clouds.3 mph98%30.05 "Hg9 mi
11:00 PM
Fri, Feb 27
33 °FPassing clouds.5 mph97%30.05 "Hg9 mi
9:00 PM35 °FClear.3 mph95%30.02 "Hg11 mi
8:00 PM36 °FClear.5 mph95%30.01 "Hg11 mi
7:00 PM38 °FPassing clouds.5 mph92%29.98 "Hg12 mi
6:00 PM40 °FOvercast.3 mph89%29.96 "Hg16 mi
5:00 PM42 °FOvercast.6 mph89%29.94 "Hg16 mi
3:00 PM44 °FOvercast.3 mph86%29.90 "Hg16 mi
2:00 PM43 °FOvercast.5 mph88%29.89 "Hg19 mi
Weather by CustomWeather, © 2015

See weather overviewHow to use our weather pages